Regional Weather Roundup
Issued by NWS New Orleans/Baton Rouge, LA

Home | Current Version | Previous Version | Text Only | Print | Product List | Glossary On
Versions: 1 2 3 4 5 6 7 8 9 10 11 12 13 14 15 16 17 18 19 20 21 22 23 24 25 26 27
000
ASUS44 KLIX 222207
RWRLIX
NEW ORLEANS REGIONAL WEATHER ROUNDUP
NATIONAL WEATHER SERVICE NEW ORLEANS LA
500 PM CDT TUE MAY 22 2018

NOTE: "FAIR" INDICATES FEW OR NO CLOUDS BELOW 12,000 FEET WITH NO
      SIGNIFICANT WEATHER AND/OR OBSTRUCTIONS TO VISIBILITY.
      SKY/WX - SKY CONDITION AND SIGNIFICANT WEATHER.
      TMP - AIR TEMPERATURE.     DP    - DEWPOINT TEMPERATURE.
      RH  - RELATIVE HUMIDITY.   PRES  - PRESSURE.
      HI  - HEAT INDEX.          WCI   - WIND CHILL INDEX.

*  THESE STATIONS ARE NOT NWS OR FAA STATIONS AND ARE NOT UNDER
   NWS QUALITY CONTROL.

LAZ038-040-048-061>063-065>067-069-222300-
SOUTHEAST LOUISIANA

CITY           SKY/WX    TMP DP  RH WIND       PRES   REMARKS
N.O. INTL ARPT PTSUNNY   88  72  58 SE10      29.95F
N.O. LAKEFRONT FAIR      88  70  55 SE8G16    29.96F
N.O. DOWNTOWN* FAIR      88  70  55 S9        29.97F
RESERVE*         N/A     90  67  46 SE9       29.94F
SLIDELL        FAIR      87  68  52 S8        29.96F
BATON ROUGE    PTSUNNY   92  63  38 CALM      29.93F
BOOTHVILLE     FAIR      87  70  56 E7        29.97F
BELLE CHASSE   PTSUNNY   88  73  61 SE10      29.96F HX  95
BOGALUSA*      FAIR      81  68  65 W7        29.98R
GALLIANO*      FAIR      86  68  54 SE7       29.97S
NEW ROADS*     MOCLDY    92  70  47 E6        29.93F HX  97
GONZALES*      FAIR      90  66  45 E5        29.93S
HAMMOND*       FAIR      90  64  43 E5        29.95S
HOUMA*         MOSUNNY   88  72  58 S14       29.95F
PORT FOURCHON* CLEAR     84  72  65 SE13      29.97F

$$

MSZ070-080>082-222300-
SOUTHERN MISSISSIPPI

CITY           SKY/WX    TMP DP  RH WIND       PRES   REMARKS
MCCOMB         FAIR      85  67  54 E8        29.97F
GULFPORT       FAIR      86  72  62 S10       29.96S
BILOXI         FAIR      86  71  60 SW9       29.96F
PASCAGOULA     FAIR      85  69  58 S6        29.97S

$$

COASTAL OBSERVATIONS
LAKE AND NEARSHORE STATIONS

STATION/POSITION TIME  SKY/WX   TEMP    WIND        PRES    WAVE
                                AIR SEA DIR/SP/G            HT/PER
                 (UTC)          (F)     (DEG/KT/KT) (MB)    (FT/S)
WAVELAND YACHT   2136            83 84  190/ 10/ 14 1014.7
GRAND ISLE       2136            83 85  150/  7/ 10 1015.0
SOUTHWEST PASS   2136            88 77  120/  7/ 10 1015.8
NEW CANAL        2136            88 87  140/  4/ 10 1014.5
SHELL BEACH      2136            84 87  160/  6/ 10 1014.9

OFFSHORE STATIONS

STATION/POSITION TIME  SKY/WX   TEMP    WIND        PRES    WAVE
                                AIR SEA DIR/SP/G            HT/PER
                 (UTC)          (F)     (DEG/KT/KT) (MB)    (FT/S)
64 S DAUPHIN ISL 2150               84  120/  6/ 10 1015.4    2/ 6

$$





USA.gov is the U.S. government's official web portal to all federal, state and local government web resources and services.